Location: Les Coudrans
(46.1056°N, 1.1158°W)
Time: 14:34:14
(UTC+00:00)

CZ-4B R/B - Pass Details

Date: 03 March 2021
Orbit: 388 x 454 km, 97.6° (Epoch: 18 April)

Event Time Altitude Azimuth Distance (km) Brightness Sun altitude
Rises 18:36:41 0° 8° (N) 2,293 4.9 -8.2°
Reaches altitude 10° 18:38:40 10° 3° (N) 1,435 3.9 -8.6°
Maximum altitude 18:41:39 51° 286° (WNW) 504 2.1 -9.1°
Drops below altitude 10° 18:44:38 10° 209° (SSW) 1,440 4.4 -9.6°
Sets 18:46:38 0° 205° (SSW) 2,302 5.3 -9.9°
